Sacramento / Mc Clellan, CA

7:29 PM PDT on October 19, 2017 (GMT -0700)
McClellan

Weather History for KMCC - July, 2013

Change the Weather History Date:

Sunday, July 7, 2013

  Actual Average (KMHR) Record (KMHR)
Temperature  
Mean Temperature 76 °F -  
Max Temperature 93 °F 88 °F 107 °F (2017)
Min Temperature 59 °F 57 °F 50 °F (2010)
Cooling Degree Days 11    
Growing Degree Days 26 (Base 50)    
Moisture  
Dew Point 46 °F    
Average Humidity 42    
Maximum Humidity 77    
Minimum Humidity 9    
Precipitation  
Precipitation 0.00 in - - ()
Sea Level Pressure  
Sea Level Pressure 29.77 in    
Wind  
Wind Speed 8 mph (South)    
Max Wind Speed 13 mph    
Max Gust Speed -    
Visibility 9 miles    
Events      
Averages and records for this station are not official NWS values.
T = Trace of Precipitation, MM = Missing Value Source: NWS Daily Summary

Daily Weather History Graph

Daily Weather History Graph

Search for Another Location

Airport or City:

Trip Planner

Search our weather history database for the weather conditions in past years. The results will help you decide how hot, cold, wet, or windy it might be!

Date:

Astronomy

Jul. 07, 2013 Rise Set
Actual Time 5:48 AM PDT 8:32 PM PDT
Civil Twilight 5:16 AM PDT 9:04 PM PDT
Nautical Twilight 4:37 AM PDT 9:43 PM PDT
Astronomical Twilight 3:52 AM PDT 10:28 PM PDT
Moon 5:28 AM PDT (7/7) 8:01 PM PDT (7/7)
Length of Visible Light 15h 47m
Length of Day
14h 44m
Waning Crescent, 0% of the Moon is Illuminated
Jul 7
Waning Crescent
Jul 8
New
Jul 15
First Quarter
Jul 22
Full
Jul 29
Last Quarter

Hourly Weather History & Observations

Time (PDT) Temp. Heat Index Dew Point Humidity Pressure Visibility Wind Dir Wind Speed Gust Speed Precip Events Conditions
12:15 AM 66.2 °F - 51.8 °F 60% 29.75 in 10.0 mi SSE 11.5 mph - N/A   Clear
12:35 AM 66.2 °F - 51.8 °F 60% 29.75 in 9.0 mi SSE 10.4 mph - N/A   Clear
12:55 AM 64.4 °F - 51.8 °F 64% 29.75 in 9.0 mi SSE 8.1 mph - N/A   Clear
1:15 AM 64.4 °F - 51.8 °F 64% 29.75 in 9.0 mi SSE 9.2 mph - N/A   Clear
1:35 AM 64.4 °F - 50.0 °F 59% 29.75 in 9.0 mi SE 11.5 mph - N/A   Clear
1:55 AM 64.4 °F - 50.0 °F 59% 29.75 in 9.0 mi SSE 10.4 mph - N/A   Clear
2:15 AM 64.4 °F - 50.0 °F 59% 29.75 in 9.0 mi SE 10.4 mph - N/A   Clear
2:35 AM 62.6 °F - 50.0 °F 63% 29.76 in 10.0 mi SE 8.1 mph - N/A   Clear
2:55 AM 64.4 °F - 50.0 °F 59% 29.76 in 10.0 mi SE 9.2 mph - N/A   Clear
3:15 AM 62.6 °F - 50.0 °F 63% 29.76 in 10.0 mi SE 9.2 mph - N/A   Clear
3:35 AM 62.6 °F - 50.0 °F 63% 29.76 in 10.0 mi SE 9.2 mph - N/A   Clear
3:55 AM 62.6 °F - 50.0 °F 63% 29.76 in 10.0 mi SSE 9.2 mph - N/A   Clear
4:15 AM 62.6 °F - 50.0 °F 63% 29.76 in 10.0 mi SSE 9.2 mph - N/A   Clear
4:35 AM 60.8 °F - 50.0 °F 68% 29.77 in 10.0 mi SSE 9.2 mph - N/A   Clear
4:55 AM 59.0 °F - 50.0 °F 72% 29.77 in 10.0 mi SSE 9.2 mph - N/A   Clear
5:15 AM 59.0 °F - 50.0 °F 72% 29.77 in 9.0 mi South 8.1 mph - N/A   Clear
5:35 AM 59.0 °F - 50.0 °F 72% 29.77 in 10.0 mi SSE 8.1 mph - N/A   Clear
5:55 AM 59.0 °F - 50.0 °F 72% 29.78 in 8.0 mi SSE 9.2 mph - N/A   Clear
6:15 AM 59.0 °F - 50.0 °F 72% 29.78 in 7.0 mi SSE 10.4 mph - N/A   Clear
6:35 AM 59.0 °F - 50.0 °F 72% 29.79 in 7.0 mi SSE 9.2 mph - N/A   Clear
6:55 AM 59.0 °F - 51.8 °F 77% 29.79 in 8.0 mi SE 6.9 mph - N/A   Clear
7:15 AM 60.8 °F - 50.0 °F 68% 29.80 in 8.0 mi SSE 8.1 mph - N/A   Clear
7:35 AM 62.6 °F - 50.0 °F 63% 29.80 in 7.0 mi SSE 9.2 mph - N/A   Clear
7:55 AM 62.6 °F - 51.8 °F 68% 29.81 in 7.0 mi SSE 6.9 mph - N/A   Clear
8:15 AM 64.4 °F - 51.8 °F 64% 29.81 in 8.0 mi SSE 5.8 mph - N/A   Clear
8:35 AM 66.2 °F - 51.8 °F 60% 29.82 in 8.0 mi SSE 3.5 mph - N/A   Clear
8:55 AM 66.2 °F - 51.8 °F 60% 29.82 in 8.0 mi South 5.8 mph - N/A   Clear
9:15 AM 68.0 °F - 53.6 °F 60% 29.82 in 8.0 mi South 5.8 mph - N/A   Clear
9:35 AM 69.8 °F - 53.6 °F 56% 29.82 in 8.0 mi SSW 6.9 mph - N/A   Clear
9:55 AM 71.6 °F - 53.6 °F 53% 29.81 in 8.0 mi South 4.6 mph - N/A   Clear
10:15 AM 73.4 °F - 53.6 °F 50% 29.81 in 8.0 mi South 5.8 mph - N/A   Clear
10:35 AM 73.4 °F - 53.6 °F 50% 29.82 in 8.0 mi SE 3.5 mph - N/A   Clear
10:55 AM 77.0 °F - 55.4 °F 47% 29.81 in 9.0 mi South 5.8 mph - N/A   Clear
11:15 AM 77.0 °F - 53.6 °F 44% 29.81 in 9.0 mi SW 3.5 mph - N/A   Clear
11:35 AM 80.6 °F 80.3 °F 53.6 °F 39% 29.81 in 10.0 mi Calm Calm - N/A   Clear
11:55 AM 80.6 °F 80.3 °F 53.6 °F 39% 29.81 in 9.0 mi SW 3.5 mph - N/A   Clear
12:15 PM 82.4 °F - 51.8 °F 35% 29.81 in 10.0 mi Calm Calm - N/A   Clear
12:35 PM 84.2 °F - 50.0 °F 30% 29.80 in 10.0 mi Calm Calm - N/A   Clear
12:55 PM 84.2 °F - 50.0 °F 30% 29.80 in 9.0 mi Calm Calm - N/A   Clear
1:15 PM 86.0 °F - 50.0 °F 29% 29.79 in 10.0 mi SE 4.6 mph - N/A   Clear
1:35 PM 86.0 °F - 50.0 °F 29% 29.79 in 9.0 mi Calm Calm - N/A   Clear
1:55 PM 89.6 °F - 50.0 °F 26% 29.78 in 9.0 mi SSE 5.8 mph - N/A   Clear
2:15 PM 89.6 °F - 48.2 °F 24% 29.77 in 10.0 mi SW 5.8 mph - N/A   Clear
2:35 PM 91.4 °F - 48.2 °F 23% 29.77 in 10.0 mi West 6.9 mph - N/A   Clear
2:55 PM 91.4 °F - 48.2 °F 23% 29.77 in 10.0 mi SSW 6.9 mph - N/A   Clear
3:15 PM 91.4 °F - 48.2 °F 23% 29.76 in 10.0 mi SW 9.2 mph - N/A   Clear
3:35 PM 91.4 °F - 46.4 °F 21% 29.76 in 10.0 mi WSW 8.1 mph - N/A   Clear
3:55 PM 93.2 °F - 46.4 °F 20% 29.75 in 9.0 mi SW 10.4 mph - N/A   Clear
4:15 PM 93.2 °F - 46.4 °F 20% 29.75 in 10.0 mi SW 9.2 mph - N/A   Clear
4:35 PM 93.2 °F - 44.6 °F 19% 29.75 in 10.0 mi SW 11.5 mph - N/A   Clear
4:55 PM 93.2 °F - 44.6 °F 19% 29.74 in 10.0 mi SW 9.2 mph - N/A   Clear
5:15 PM 93.2 °F - 41.0 °F 16% 29.74 in 10.0 mi South 6.9 mph - N/A   Clear
5:35 PM 93.2 °F - 37.4 °F 14% 29.73 in 10.0 mi SW 9.2 mph - N/A   Clear
5:55 PM 93.2 °F - 32.0 °F 11% 29.73 in 10.0 mi SW 9.2 mph - N/A   Clear
6:15 PM 93.2 °F - 28.4 °F 10% 29.73 in 10.0 mi SW 9.2 mph - N/A   Clear
6:35 PM 91.4 °F - 24.8 °F 9% 29.74 in 10.0 mi SW 10.4 mph - N/A   Clear
6:55 PM 91.4 °F - 28.4 °F 10% 29.74 in 10.0 mi SW 10.4 mph - N/A   Clear
7:15 PM 91.4 °F - 26.6 °F 10% 29.74 in 10.0 mi SW 11.5 mph - N/A   Clear
7:35 PM 89.6 °F - 28.4 °F 11% 29.74 in 10.0 mi SW 9.2 mph - N/A   Clear
7:55 PM 87.8 °F - 21.2 °F 9% 29.75 in 10.0 mi SW 10.4 mph - N/A   Clear
8:15 PM 86.0 °F - 24.8 °F 11% 29.75 in 10.0 mi SSW 9.2 mph - N/A   Clear
8:35 PM 84.2 °F - 23.0 °F 11% 29.75 in 10.0 mi SSW 12.7 mph - N/A   Clear
8:55 PM 82.4 °F - 23.0 °F 11% 29.76 in 10.0 mi SSW 11.5 mph - N/A   Clear
9:15 PM 82.4 °F - 26.6 °F 13% 29.76 in 10.0 mi South 9.2 mph - N/A   Clear
9:35 PM 80.6 °F - 33.8 °F 18% 29.77 in 10.0 mi South 10.4 mph - N/A   Clear
9:55 PM 77.0 °F - 41.0 °F 28% 29.78 in 10.0 mi South 10.4 mph - N/A   Clear
10:15 PM 77.0 °F - 44.6 °F 32% 29.78 in 10.0 mi SSW 9.2 mph - N/A   Clear
10:35 PM 73.4 °F - 48.2 °F 41% 29.79 in 10.0 mi SSE 8.1 mph - N/A   Clear
10:55 PM 71.6 °F - 50.0 °F 46% 29.80 in 10.0 mi South 6.9 mph - N/A   Clear
11:15 PM 69.8 °F - 50.0 °F 49% 29.80 in 10.0 mi SSE 10.4 mph - N/A   Clear
11:35 PM 68.0 °F - 51.8 °F 56% 29.80 in 10.0 mi SSE 9.2 mph - N/A   Clear
11:55 PM 68.0 °F - 51.8 °F 56% 29.81 in 10.0 mi SSE 8.1 mph - N/A   Clear